Theta_e
305 306 304 305 305 305 306 306 307 306 307 307 307 307 308 307 306 306 305 305 305 306 306 307 306 306 306 307 308 308 310 313 315 316 312 311 310 309 308 307 305 305 305
305 305 305 305 306 306 306 307 307 307 307 307 307 308 307 306 305 306 305 304 305 305 306 306 305 305 305 305 305 305 307 310 313 313 310 308 307 307 306 305 304 304 304
304 305 306 306 307 307 307 307 308 308 307 308 308 308 308 306 305 305 305 304 304 304 304 305 304 303 304 305 304 305 305 308 312 313 309 307 306 306 305 305 304 303 303
305 306 307 307 307 307 307 308 308 308 308 308 308 308 308 306 305 305 305 304 305 304 305 304 302 303 303 304 304 304 305 307 311 312 309 307 306 306 306 305 303 301 300
306 306 307 307 307 307 307 308 308 308 308 308 308 308 306 304 304 306 306 305 305 305 304 303 301 302 301 304 304 304 304 305 309 310 309 307 307 307 306 305 302 300 299
306 306 306 306 306 307 307 307 307 308 308 308 307 306 304 304 304 305 306 306 305 303 302 301 301 300 300 304 304 305 305 305 306 310 309 308 308 306 306 304 302 301 301
306 306 306 306 306 306 307 307 307 308 308 307 307 305 303 304 306 306 307 306 305 303 302 300 300 300 301 304 305 305 306 306 306 308 309 308 307 306 306 304 304 303 299
306 306 306 306 306 306 304 305 306 307 308 307 306 305 303 303 303 304 307 306 305 303 301 300 300 302 302 303 304 305 306 307 308 309 309 308 308 307 307 306 305 301 300
306 305 305 306 305 304 303 304 306 305 306 306 305 304 303 303 303 303 304 306 304 302 301 300 300 302 302 303 305 305 305 306 308 309 309 309 308 307 307 308 303 303 304
304 305 305 306 305 303 302 303 303 302 301 301 302 303 302 302 302 303 303 305 304 302 300 300 302 302 303 304 305 306 306 305 305 307 307 308 308 309 307 306 305 305 304
303 304 305 305 304 301 301 302 302 301 301 300 300 300 299 299 300 302 302 302 302 300 299 300 302 302 303 305 306 305 304 304 305 306 305 305 306 307 307 307 307 305 304
304 304 304 304 302 301 301 300 300 300 300 300 300 300 300 300 299 301 301 301 300 299 299 300 302 303 304 305 305 305 306 306 304 303 301 300 300 301 301 303 303 304 304
303 304 304 302 302 301 301 300 299 299 299 299 299 299 300 299 300 300 301 300 300 299 300 301 303 303 304 304 305 306 305 304 303 301 300 299 299 299 299 299 299 299 298
304 304 303 302 301 301 300 300 299 298 298 298 298 298 299 299 299 300 300 300 299 300 301 303 303 303 304 304 304 304 303 302 301 301 300 299 300 300 299 298 298 300 301
304 303 303 302 301 301 300 299 299 298 298 298 298 298 298 298 298 299 299 299 300 301 302 303 303 303 303 303 302 302 302 302 301 300 300 300 300 300 300 300 301 301 301
302 301 301 300 300 300 300 299 299 299 299 298 298 298 298 298 298 298 298 299 301 302 302 301 302 302 303 302 302 301 301 300 300 300 300 300 300 300 301 301 302 302 301
301 300 300 300 299 299 299 299 299 299 300 300 300 300 299 299 299 299 300 301 302 303 301 302 303 303 303 302 301 301 301 301 300 301 300 300 300 299 299 299 299 300 300
300 300 299 300 300 300 300 300 300 300 300 301 302 302 301 301 300 300 301 302 302 302 303 303 303 303 303 302 301 301 301 301 301 301 301 301 299 299 299 300 300 300 299
301 301 301 301 302 301 301 301 301 301 301 301 302 302 302 302 301 301 301 302 302 303 304 304 304 303 303 302 302 302 302 302 302 302 300 299 299 301 301 301 302 302 302
303 303 303 303 302 302 301 301 301 301 302 301 301 302 302 303 302 302 303 303 304 304 304 304 304 304 303 304 304 304 304 303 303 301 300 300 300 301 302 302 303 303 303
304 304 304 303 303 303 303 302 302 301 301 302 302 302 303 303 303 303 304 304 305 305 305 305 305 305 305 305 305 304 304 304 302 302 301 301 301 303 304 304 304 304 304
305 304 304 304 304 303 303 302 302 302 302 302 303 303 304 304 304 305 305 305 305 306 306 306 306 306 306 305 305 305 304 302 302 302 303 304 305 304 304 305 305 306 306
303 304 306 305 304 304 304 304 303 303 303 303 303 304 304 304 304 304 303 304 306 306 307 307 308 308 308 307 307 306 306 306 306 306 306 305 305 305 304 304 305 306 305
304 303 306 307 306 306 305 304 304 303 303 303 303 303 303 303 303 303 303 305 306 306 307 307 307 307 306 306 306 306 306 306 306 307 307 306 306 304 304 304 304 305 304
304 304 305 305 304 303 304 304 304 304 304 303 303 303 303 302 302 302 302 302 303 304 305 305 306 306 305 306 307 307 307 307 307 307 307 304 302 302 301 301 300 300 300
304 303 304 304 304 305 305 305 304 304 304 303 303 303 302 301 301 301 301 302 303 303 303 304 304 304 304 304 304 304 304 305 305 304 303 302 301 299 298 297 297 297 297
Wind_Speed
12 12 16 15 14 12 12 14 14 14 14 15 16 18 18 16 15 17 18 17 15 15 16 12 14 13 14 15 15 16 16 10 5 2 10 19 21 22 22 22 21 21 20
13 14 13 15 16 16 16 16 15 14 15 15 13 13 13 13 13 13 17 16 13 12 14 14 15 17 17 17 17 18 17 14 8 6 13 15 19 23 22 23 21 20 21
12 14 16 17 18 18 16 14 14 14 14 12 10 10 10 12 11 10 12 12 14 14 13 14 16 20 20 18 18 19 18 15 12 10 14 17 15 22 22 22 18 16 17
15 17 17 16 17 17 17 14 15 13 13 12 9 7 7 11 10 9 9 10 11 12 13 14 16 18 20 18 16 18 18 15 12 12 15 17 16 20 16 17 14 13 14
18 17 17 18 18 18 17 14 14 12 10 10 8 5 7 11 11 10 8 9 11 11 12 14 17 15 15 14 10 14 14 13 11 10 13 14 13 12 13 13 14 14 16
17 16 17 18 17 19 15 15 15 13 9 7 6 7 11 12 12 11 10 7 8 10 14 17 19 19 18 14 10 11 8 8 7 4 13 12 8 15 17 17 16 4 2
14 16 17 17 16 17 16 14 15 11 7 6 5 8 12 13 14 15 9 6 4 8 14 19 23 20 18 14 9 12 7 4 2 1 13 14 16 18 19 15 5 7 7
15 15 15 14 14 13 14 14 11 9 5 6 7 8 9 13 14 15 7 3 3 6 14 18 20 22 19 14 12 9 7 2 3 4 15 16 15 18 15 10 7 16 12
17 14 13 9 9 10 13 14 10 11 8 7 6 7 7 11 12 13 11 5 4 6 14 16 17 20 17 13 10 11 13 14 10 13 14 15 16 11 7 7 16 10 3
19 17 10 4 4 9 11 12 11 11 11 9 8 8 8 10 11 11 10 6 1 8 11 13 15 17 15 12 10 15 17 16 24 23 21 16 10 8 8 8 11 4 7
16 11 6 3 6 9 11 11 10 11 11 11 12 12 13 13 10 8 7 6 5 7 11 14 16 17 14 13 14 19 21 23 25 24 20 17 15 12 8 4 2 5 3
12 9 2 4 7 10 11 13 14 14 14 14 13 13 13 14 11 8 7 7 7 9 11 12 13 14 14 15 18 19 21 23 24 23 22 21 19 17 15 13 13 13 12
9 8 4 5 8 10 11 13 14 15 15 14 14 14 14 13 12 7 6 7 9 10 10 11 12 15 19 18 18 19 20 22 22 23 19 18 16 15 18 21 23 24 26
11 10 6 8 8 11 12 10 13 15 15 15 15 13 11 11 12 11 8 6 9 10 11 14 17 19 20 20 21 21 20 19 20 20 18 16 17 18 21 23 26 26 26
9 11 9 8 8 8 10 11 11 11 13 16 15 14 12 12 11 9 8 9 10 11 14 19 21 21 22 22 21 20 18 17 18 16 18 18 18 18 18 18 21 22 21
11 11 11 10 10 10 11 12 9 10 13 14 12 12 13 13 12 12 11 11 12 14 20 19 19 20 19 18 18 18 17 17 17 17 18 19 19 20 22 21 18 18 17
12 11 10 10 12 12 12 13 13 12 12 12 15 17 17 15 16 15 15 15 17 19 22 19 18 18 17 17 18 18 18 17 17 20 21 21 22 20 18 17 15 15 14
13 12 14 13 11 12 13 14 14 15 14 16 23 25 24 19 17 17 17 19 22 22 20 18 18 16 16 17 17 17 17 18 19 19 20 19 19 20 19 17 16 14 12
12 13 10 11 14 14 14 15 17 18 19 21 20 22 21 19 19 18 17 21 19 20 19 18 16 15 16 17 17 18 17 17 18 19 19 19 17 16 15 14 12 12 11
20 19 17 16 16 16 17 17 18 18 20 22 22 21 20 22 22 22 22 21 19 18 19 20 19 19 18 18 17 16 17 18 17 17 15 13 12 12 13 13 12 10 9
24 23 21 20 20 18 17 18 18 18 20 22 22 21 23 26 23 22 21 22 21 21 19 19 17 17 17 16 16 17 18 17 15 13 11 10 10 13 14 13 11 8 6
26 25 25 24 23 23 22 21 21 21 21 21 22 23 23 24 22 23 22 20 19 20 21 23 25 23 20 19 18 18 17 14 12 10 10 10 12 14 14 12 9 9 8
20 21 22 22 24 26 26 24 23 21 23 23 22 22 23 23 22 21 20 20 19 19 18 18 19 20 18 18 17 15 13 11 9 8 9 11 13 13 14 14 10 10 11
19 17 15 18 18 17 19 21 25 25 24 24 24 24 24 22 21 20 19 19 18 18 19 20 20 19 16 14 13 12 10 9 8 9 9 9 10 12 14 15 15 13 14
18 10 11 8 11 15 19 21 21 20 19 19 20 22 22 23 24 24 24 24 25 26 25 24 24 23 23 22 19 18 17 15 13 12 12 13 13 14 14 15 15 15 16
13 11 8 11 17 19 21 19 18 19 19 20 20 21 22 24 24 25 25 25 25 25 24 23 21 21 20 20 20 17 17 16 15 13 12 13 14 14 15 17 18 19 19
Wind_Direction
354 347 341 346 348 349 346 344 339 333 330 330 335 339 347 359 2 2 1 357 356 0 9 9 9 359 350 350 349 347 344 338 324 108 110 122 115 110 103 98 89 83 77
353 352 2 354 351 346 341 340 337 328 327 331 337 347 353 358 357 2 1 7 6 7 16 20 14 14 15 8 2 2 353 8 306 79 103 105 102 115 109 100 92 89 81
8 358 355 355 355 352 350 346 346 343 343 348 348 350 350 349 353 355 1 15 22 27 22 14 8 5 0 1 5 360 360 1 6 107 115 123 115 121 111 99 88 79 69
359 358 0 1 357 353 350 347 348 349 352 356 349 347 342 345 350 343 349 356 3 9 7 3 359 357 355 356 354 354 1 8 17 126 121 132 131 132 115 105 88 82 72
358 3 3 357 350 350 353 356 357 360 0 354 355 356 345 345 345 334 328 331 344 354 359 357 350 345 352 358 347 347 356 3 29 97 120 133 140 137 124 127 106 93 73
355 357 359 359 1 2 5 7 6 7 8 21 34 12 2 356 345 329 310 294 332 351 358 357 354 351 351 360 360 355 351 347 10 84 124 132 138 133 145 140 133 138 92
357 358 358 354 357 6 13 19 21 21 27 30 16 7 7 7 0 345 312 254 300 346 356 356 356 357 354 360 4 349 356 333 306 71 147 141 149 160 160 158 153 92 104
2 358 354 0 10 20 19 14 14 15 5 6 9 357 4 6 4 0 3 233 288 349 1 360 357 357 0 358 355 2 8 4 135 132 169 165 170 167 167 170 129 117 103
1 357 353 15 21 21 12 360 10 22 30 20 16 14 354 2 3 3 359 259 243 354 357 359 358 2 2 4 12 46 78 95 104 122 133 139 143 149 162 162 131 118 107
355 348 346 13 22 16 13 23 41 41 35 27 23 24 359 351 359 8 6 16 4 356 359 2 10 9 12 21 59 77 86 91 108 113 110 111 123 127 141 149 148 142 123
331 343 355 356 41 33 34 33 26 21 18 25 27 16 10 4 6 8 15 16 17 7 12 13 17 20 32 61 88 94 94 107 106 102 96 91 93 102 129 136 177 161 134
353 357 36 42 42 43 42 40 35 29 26 15 5 1 12 17 19 28 33 44 43 32 24 23 25 49 61 84 94 105 106 105 96 89 80 74 76 79 80 84 88 89 93
351 11 37 46 51 40 33 38 29 24 14 1 356 356 12 22 26 44 49 56 45 36 37 38 63 77 80 88 97 102 96 91 89 81 77 79 80 87 94 92 91 93 95
27 32 53 52 45 29 25 32 22 16 8 1 352 356 21 20 36 51 58 65 40 55 56 69 78 80 85 87 85 83 83 87 91 92 90 91 95 94 94 103 104 101 94
50 46 48 36 36 23 23 22 13 14 16 25 37 44 52 50 39 49 55 60 63 67 75 78 74 73 74 75 78 80 83 88 88 93 94 95 94 98 99 107 106 101 90
51 51 44 39 36 32 20 15 24 25 41 46 48 66 64 62 65 68 72 77 81 84 76 61 61 64 63 64 70 78 83 86 89 94 96 100 97 98 97 94 83 78 72
50 38 37 42 31 29 30 24 14 51 63 48 44 57 71 73 74 77 85 86 87 87 72 68 66 67 67 68 78 81 84 88 99 105 103 97 97 89 82 76 73 70 62
57 54 57 57 50 37 41 45 51 47 39 40 59 65 69 76 78 83 88 91 76 75 71 70 71 70 70 78 85 88 90 95 96 96 92 92 93 90 83 76 71 73 73
45 37 36 37 45 56 62 66 67 65 55 49 62 74 82 85 86 87 87 80 76 68 67 66 65 69 76 83 87 87 87 87 88 92 97 97 93 85 73 64 63 66 69
50 53 53 58 66 70 69 66 66 66 59 48 57 72 82 86 78 79 78 78 72 67 69 73 74 77 81 84 87 87 89 93 95 96 93 85 70 52 41 31 27 25 27
53 59 67 69 70 72 71 69 67 67 64 64 66 76 89 87 82 76 70 69 71 74 70 63 61 62 69 75 81 85 88 91 92 90 82 62 36 19 7 355 343 334 320
59 60 68 67 69 69 69 71 73 72 73 79 86 84 86 84 79 77 74 67 63 64 64 69 69 69 70 74 78 82 82 80 77 66 47 28 14 9 10 19 41 70 84
48 50 61 73 76 74 74 65 69 75 84 92 88 80 76 75 76 72 68 70 72 70 66 65 67 70 71 72 71 70 69 64 52 37 28 21 21 31 45 46 52 92 94
28 49 74 72 80 62 46 59 76 86 84 86 81 79 76 72 71 73 75 76 75 72 75 76 73 69 63 56 50 44 37 34 32 33 38 42 62 69 64 59 64 88 98
33 75 73 51 31 37 75 98 88 81 80 77 76 77 77 77 77 77 79 77 76 75 74 73 72 69 64 59 60 55 55 61 67 72 81 92 82 76 74 75 82 87 93
30 88 84 68 74 91 101 96 90 87 84 85 85 83 81 79 79 78 76 75 74 73 72 70 68 67 63 60 61 68 65 65 71 74 80 85 83 81 79 81 81 83 86